Location: Ciechanow
(52.8812°N, 20.6195°E)
Time: 11:16:31
(UTC+01:00)

ISS - Visible Passes

Search period start: 24 January 2019 00:00
Search period end: 03 February 2019 00:00
Orbit: 404 x 410 km, 51.6° (Epoch: 24 January)

Date Brightness Start Highest point End Pass type
(mag) Time Alt. Az. Time Alt. Az. Time Alt. Az.
24 Jan -1.7 17:50:03 10° S 17:52:00 15° SE 17:52:03 15° SE visible
25 Jan -2.2 18:33:40 10° SW 18:35:41 27° SSW 18:35:41 27° SSW visible
26 Jan -2.3 17:42:42 10° SSW 17:45:28 25° SSE 17:46:30 21° ESE visible
26 Jan -0.9 19:18:23 10° WSW 19:19:14 16° WSW 19:19:14 16° WSW visible
27 Jan -1.8 16:51:59 10° S 16:54:16 18° SE 16:56:35 10° E visible
27 Jan -3.2 18:27:06 10° WSW 18:30:00 49° S 18:30:00 49° S visible
28 Jan -3.0 17:35:53 10° SW 17:39:00 40° SSE 17:40:43 22° E visible
28 Jan -1.4 19:12:03 10° W 19:13:26 23° W 19:13:26 23° W visible
29 Jan -3.8 18:20:40 10° WSW 18:23:58 67° S 18:24:07 66° SSE visible
30 Jan -3.5 17:29:19 10° WSW 17:32:33 57° SSE 17:34:47 18° E visible
30 Jan -1.8 19:05:42 10° W 19:07:30 29° W 19:07:30 29° W visible
31 Jan -3.8 18:14:16 10° W 18:17:34 73° S 18:18:09 55° ESE visible
31 Jan -0.2 19:50:47 10° W 19:50:52 11° W 19:50:52 11° W visible
01 Feb -3.7 17:22:51 10° WSW 17:26:08 70° S 17:28:49 15° E visible
01 Feb -2.3 18:59:18 10° W 19:01:31 36° WSW 19:01:31 36° WSW visible
02 Feb -3.6 18:07:51 10° W 18:11:08 65° S 18:12:12 38° ESE visible
02 Feb -0.5 19:44:29 10° W 19:44:55 13° W 19:44:55 13° W visible
